#timestamp,LO_Frequency,Hit 
1497628815.5,286047000.2,N
1497628835.4,286047004.4,N
1497628855.2,286047002.4,N
1497628875.0,286047000.4,N
1497628875.9,286047000.4,N
1497628895.8,286047000.7,N
1497628915.6,286047000.8,N
1497628935.4,286047000.4,N
1497628955.2,286046997.4,N
1497628975.1,286046999.3,N
1497628976.0,286046999.3,N
1497628995.8,286046996.2,N
1497629015.6,286046997.8,N
1497629035.5,286046997.9,N
1497629055.3,286046997.7,N
1497629075.1,286046995.4,N
1497629095.9,286046995.6,N
1497629115.7,286046995.4,N
1497629135.5,286046998.5,N
1497629155.4,286046997.0,N
1497629175.2,286046997.8,N
1497629195.0,286046997.3,N
1497629195.9,286046997.3,N
1497629215.8,286046998.7,N
1497629235.6,286046999.7,N
1497629255.4,286046999.3,N
1497629275.3,286047000.6,N
1497629295.1,286046998.7,N
1497629296.0,286046998.7,N
1497629315.8,286046999.8,N
1497629335.6,286046998.3,N
1497629355.5,286046998.1,N
1497629375.3,286046998.6,N
1497629395.1,286047000.8,N
1497629415.9,286046996.8,N
1497629435.7,286046998.1,N
1497629455.5,286046996.5,N
1497629475.4,286046999.6,N
1497629495.2,286047001.1,N
1497629515.0,286047002.7,N
1497629515.9,286047002.7,N
1497629535.8,286046999.8,N
1497629555.6,286046998.1,N
1497629575.4,286046998.2,N
1497629595.2,286046998.1,N
1497629615.1,286047000.8,N
1497629616.0,286047000.8,N
1497629635.8,286047000.3,N
1497629655.6,286046997.3,N
1497629675.5,286046996.0,N
1497629695.3,286046998.0,N
1497629715.1,286046995.0,N
1497629735.9,286046997.7,N
1497629755.7,286046998.8,N
1497629775.5,286047002.8,N
1497629795.4,286046998.5,N
1497629815.2,286047001.1,N
1497629835.0,286047004.4,N
1497629835.9,286047004.4,N
1497629855.8,286047004.3,N
1497629875.6,286047002.2,N
1497629895.4,286046998.5,N
1497629915.2,286046999.9,N
1497629935.1,286046996.8,N
1497629936.0,286046996.8,N
1497629955.8,286046999.3,N
1497629975.6,286047000.9,N
1497629995.5,286047002.8,N
1497630015.3,286047000.1,N
1497630035.1,286046999.8,N
1497630055.9,286046998.1,N
1497630075.7,286047000.6,N
1497630095.5,286047001.1,N
1497630115.4,286047002.8,N
1497630135.2,286047001.2,N
1497630155.0,286046998.8,N
1497630155.9,286046998.8,N
1497630175.8,286046998.2,N
1497630195.6,286047002.3,N
1497630215.4,286047002.6,N
1497630235.3,286047003.6,N
1497630255.1,286047005.5,N
1497630256.0,286047005.5,N
1497630275.8,286047003.3,N
1497630295.6,286047001.4,N
1497630315.5,286047003.3,N
1497630335.3,286047001.5,N
1497630355.1,286047003.2,N
1497630375.9,286047007.5,N
1497630395.7,286047003.0,N
1497630415.5,286047005.5,N
1497630435.4,286047007.6,N
1497630455.2,286047005.2,N
1497630475.0,286047005.4,N
1497630475.9,286047005.4,N
1497630495.8,286047007.5,N
1497630515.6,286047007.3,N
1497630535.4,286047007.6,N
1497630555.3,286047006.2,N
1497630575.1,286047003.0,N
1497630576.0,286047003.0,N
1497630595.8,286047004.4,N
1497630615.6,286047003.9,N
1497630635.5,286047007.5,N
1497630655.3,286047006.8,N
1497630675.1,286047007.5,N
1497630695.9,286047006.7,N
1497630715.7,286047010.4,N
1497630735.5,286047008.6,N
1497630755.4,286047009.7,N
1497630775.2,286047009.0,N
1497630795.0,286047008.0,N
1497630795.9,286047008.0,N
1497630815.8,286047006.7,N
1497630835.6,286047009.1,N
1497630855.4,286047008.9,N
1497630875.3,286047008.3,N
1497630895.1,286047008.2,N
1497630896.0,286047008.2,N
1497630915.8,286047006.4,N
1497630935.7,286047008.5,N
1497630955.5,286047010.1,N
1497630975.3,286047007.8,N
1497630995.1,286047011.7,N
1497631015.9,286047009.9,N
1497631035.7,286047008.7,N
1497631055.5,286047008.7,N
1497631075.4,286047010.0,N
1497631095.2,286047013.1,N
1497631115.0,286047011.2,N
1497631115.9,286047011.2,N
1497631135.8,286047009.6,N
1497631155.6,286047008.6,N
1497631175.4,286047010.8,N
1497631195.3,286047009.3,N
1497631215.1,286047009.6,N
1497631216.0,286047009.6,N
1497631235.8,286047011.1,N
1497631255.6,286047013.7,N
1497631275.5,286047012.8,N
1497631295.3,286047014.9,N
1497631315.1,286047013.0,N
1497631335.9,286047011.7,N
1497631355.7,286047010.3,N
1497631375.5,286047008.8,N
1497631395.4,286047009.7,N
1497631415.2,286047013.9,N
1497631435.0,286047009.3,N
1497631435.9,286047009.3,N
1497631455.8,286047013.6,N
1497631475.6,286047011.1,N
1497631495.4,286047010.9,N
1497631515.3,286047011.2,N
1497631535.1,286047009.6,N
1497631536.0,286047009.6,N
1497631555.8,286047012.2,N
1497631575.6,286047009.5,N
1497631595.5,286047012.0,N
1497631615.3,286047012.7,N
1497631635.1,286047013.0,N
1497631655.9,286047013.0,N
1497631675.7,286047013.6,N
1497631695.5,286047013.9,N
1497631715.4,286047013.3,N
1497631735.2,286047013.1,N
1497631755.0,286047013.1,N
1497631755.9,286047013.1,N
1497631775.8,286047016.6,N
1497631795.6,286047016.7,N
1497631815.4,286047016.8,N
1497631835.3,286047016.0,N
1497631855.1,286047016.5,N
1497631856.0,286047016.5,N
1497631875.8,286047014.1,N
1497631895.6,286047012.7,N
1497631915.5,286047014.3,N
1497631935.3,286047014.6,N
1497631955.1,286047016.9,N
1497631975.9,286047014.7,N
1497631995.7,286047013.9,N
1497632015.5,286047009.5,N
1497632035.4,286047012.7,N
1497632055.2,286047012.0,N
1497632075.0,286047013.6,N
1497632075.9,286047013.6,N
1497632095.8,286047011.2,N
1497632115.6,286047011.3,N
1497632135.4,286047011.6,N
1497632155.3,286047013.5,N
1497632175.1,286047014.6,N
1497632176.0,286047014.6,N
1497632195.8,286047012.7,N
1497632215.6,286047011.0,N
1497632235.5,286047013.5,N
1497632255.3,286047013.5,N
1497632275.1,286047015.4,N
1497632295.9,286047013.0,N
1497632315.7,286047015.0,N
1497632335.5,286047014.2,N
1497632355.4,286047018.4,N
1497632375.2,286047017.0,N
1497632395.0,286047017.2,N
1497632395.9,286047017.2,N
